Voltar ao catálogo

STARLINK-34672

AtivoComunicaçõesVLEO
NORAD 65894·PAYLOAD·🇺🇸 United States

Lançado Oct 7, 2025 de Cape Canaveral Space Force Station

Loading…

Próximas Passagens (próximas 24 horas)

TLE

AtualizadoSource: CelesTrak SupGP

Época: Sep 14, 2026, 22:34 UTC

1 65894C 25224N   26257.94076389  .00003316  00000+0  97923-4 0  2578
2 65894  53.1589 211.8504 0001453 101.4612 332.7780 15.34401285    18

Acompanhe STARLINK-34672 em tempo real com AllMySat

Download on the App Store